Location: Ernez
(36.4595°N, 29.8755°E)
Time: 07:50:53
(UTC+00:00)

SL-4 R/B - Pass Details

Date: 13 November 2025
Orbit: 387 x 527 km, 51.6° (Epoch: 04 December)

Event Time Altitude Azimuth Distance (km) Brightness Sun altitude
Rises 16:23:50 0° 307° (NW) 2,411 6.0 -18.3°
Reaches altitude 10° 16:25:55 10° 304° (NW) 1,565 5.0 -18.7°
Maximum altitude 16:29:24 60° 224° (SW) 530 2.1 -19.4°
Enters shadow 16:30:56 31° 156° (SSE) 843 2.8 -19.7°
